Regional Weather Roundup
Issued by NWS

Home | Current Version | Previous Version | Text Only | Print | Product List | Glossary Off
Versions: 1 2 3 4 5 6 7 8 9 10 11 12 13 14 15 16 17 18 19 20 21 22 23 24 25 26

000
ASUS45 KBOI 131910
RWRID

IDAHO REGIONAL WEATHER ROUNDUP
NATIONAL WEATHER SERVICE BOISE ID
1200 PM MST WED DEC 13 2017

NOTE: "FAIR" INDICATES FEW OR NO CLOUDS BELOW 12000 FEET
WITH NO SIGNIFICANT WEATHER AND/OR OBSTRUCTIONS TO VISIBILITY

IDZ012-014-132000-
SOUTHWEST IDAHO


CITY           SKY/WX    TMP DP  RH WIND       PRES   REMARKS
BOISE          CLOUDY    24  21  88 SW3       30.42F FOG
CALDWELL       NOT AVBL
MOUNTAIN HOME  FOG       22  22 100 CALM      30.41F VSB 1
$$

IDZ016-017-132000-
SOUTHCENTRAL IDAHO


CITY           SKY/WX    TMP DP  RH WIND       PRES   REMARKS
BURLEY         CLOUDY    24  21  88 S3        30.31F FOG
JEROME         HAZE      25  19  78 W6        30.37R VSB 3/4 WCI  18
TWIN FALLS     CLOUDY    23  21  92 NW5       30.35S FOG     WCI  17
$$

IDZ019>023-132000-
SOUTHEAST IDAHO


CITY           SKY/WX    TMP DP  RH WIND       PRES   REMARKS
IDAHO FALLS    CLOUDY    23  20  88 SE7       30.31F FOG     WCI  15
POCATELLO      CLOUDY    23  21  92 CALM      30.31F
REXBURG        CLOUDY    28  21  75 CALM      30.30F
$$

IDZ006-010-011-018-031-032-132000-
CENTRAL IDAHO MOUNTAINS


CITY           SKY/WX    TMP DP  RH WIND       PRES   REMARKS
MCCALL         CLOUDY    27  25  92 S6        30.29F WCI  20
HAILEY         PTSUNNY   28  25  86 SE8       30.26F WCI  20
STANLEY          N/A     24  20  84 CALM      30.29F
SALMON         LGT SNOW  24  19  81 S3        30.38F
CHALLIS        CLOUDY    26  21  81 NE3       30.29F
$$

IDZ002-004-006-007-026-132000-
NORTHERN IDAHO


CITY           SKY/WX    TMP DP  RH WIND       PRES   REMARKS
LEWISTON       CLOUDY    32  27  81 NW3       30.50F
LOWELL           N/A     33  30  88 CALM      30.49F
COEUR D`ALENE  CLOUDY    30  27  88 CALM      30.47S
MULLAN PASS    CLOUDY    24  23  96 NW3       30.27F
$$




USA.gov is the U.S. government's official web portal to all federal, state and local government web resources and services.